| time (UTC) | temp F | wind direction | speed knots | gust knots | rain 1hr in | rain 24hr in | rain mn in | humidity % | barometer mb |
| 20260505073005 | 57 | 237 | 3.5 | 7.0 | 0.00 | 0.00 | 0.00 | 80 | 1012.2 |
| 20260505071507 | 58 | 225 | 2.6 | 6.1 | 0.00 | 0.00 | 0.00 | 79 | 1012.0 |
| 20260505070012 | 59 | 202 | 1.7 | 6.1 | 0.00 | 0.00 | 0.00 | 77 | 1011.9 |
| 20260505064517 | 60 | 243 | 0.9 | 2.6 | 0.00 | 0.00 | 0.00 | 76 | 1011.7 |
| 20260505063003 | 60 | 230 | 0.9 | 4.3 | 0.00 | 0.00 | 0.00 | 1011.6 | |
| 20260505061509 | 61 | 140 | 1.7 | 6.1 | 0.00 | 0.00 | 0.00 | 73 | 1011.5 |
| 20260505060010 | 62 | 302 | 1.7 | 6.1 | 0.00 | 0.00 | 0.00 | 70 | 1011.3 |
| 20260505054518 | 64 | 257 | 0.9 | 4.3 | 0.00 | 0.00 | 0.00 | 68 | 1011.2 |
| 20260505053003 | 65 | 173 | 1.7 | 4.3 | 0.00 | 0.00 | 0.00 | 67 | 1011.0 |
| 20260505051512 | 66 | 153 | 0.9 | 1.7 | 0.00 | 0.00 | 0.00 | 65 | 1010.9 |
| 20260505041503 | 69 | 221 | 0.0 | 0.0 | 0.00 | 0.00 | 0.00 | 53 | 1010.1 |
| 20260505040013 | 70 | 221 | 0.0 | 0.0 | 0.00 | 0.00 | 0.00 | 53 | 1009.9 |
| 20260505034516 | 71 | 299 | 0.0 | 0.0 | 0.00 | 0.00 | 0.00 | 50 | 1009.7 |
| 20260505033018 | 72 | 299 | 0.0 | 0.9 | 0.00 | 0.00 | 0.00 | 51 | 1009.4 |
| 20260505031524 | 73 | 338 | 0.0 | 1.7 | 0.00 | 0.00 | 0.00 | 48 | 1009.3 |
| 20260505030008 | 73 | 308 | 0.9 | 3.5 | 0.00 | 0.00 | 0.00 | 46 | 1009.2 |
| 20260505024512 | 74 | 334 | 0.9 | 3.5 | 0.00 | 0.00 | 0.00 | 46 | 1009.0 |
| 20260505023015 | 75 | 255 | 0.0 | 1.7 | 0.00 | 0.00 | 0.00 | 45 | 1009.0 |
| 20260505021521 | 76 | 329 | 2.6 | 7.8 | 0.00 | 0.00 | 0.00 | 43 | 1008.9 |
| 20260505020008 | 77 | 319 | 2.6 | 7.0 | 0.00 | 0.00 | 0.00 | 41 | 1009.0 |
| 20260505014512 | 78 | 282 | 1.7 | 8.7 | 0.00 | 0.00 | 0.00 | 40 | 1008.9 |
| 20260505013014 | 80 | 360 | 2.6 | 7.0 | 0.00 | 0.00 | 0.00 | 39 | 1008.9 |
| 20260505011519 | 81 | 205 | 0.9 | 4.3 | 0.00 | 0.00 | 0.00 | 36 | 1008.9 |
| 20260505010025 | 81 | 239 | 0.9 | 5.2 | 0.00 | 0.00 | 0.00 | 36 | 1008.9 |
| 20260505004508 | 81 | 331 | 0.9 | 6.1 | 0.00 | 0.00 | 0.00 | 35 | 1008.9 |
| 20260505003021 | 81 | 246 | 2.6 | 7.0 | 0.00 | 0.00 | 0.00 | 36 | 1009.0 |
| 20260505001518 | 81 | 226 | 3.5 | 7.0 | 0.00 | 0.00 | 0.00 | 36 | 1009.1 |
| 20260505000024 | 82 | 218 | 2.6 | 4.3 | 0.00 | 0.00 | 0.00 | 35 | 1009.1 |
| 20260504234528 | 82 | 201 | 1.7 | 5.2 | 0.00 | 0.00 | 0.00 | 35 | 1009.2 |
| 20260504233010 | 81 | 219 | 0.0 | 7.8 | 0.00 | 0.00 | 0.00 | 34 | 1009.2 |
| 20260504231518 | 80 | 214 | 1.7 | 6.1 | 0.00 | 0.00 | 0.00 | 35 | 1009.3 |
| 20260504230020 | 80 | 236 | 3.5 | 8.7 | 0.00 | 0.00 | 0.00 | 35 | 1009.3 |
| 20260504224526 | 80 | 221 | 0.9 | 10.4 | 0.00 | 0.00 | 0.00 | 36 | 1009.4 |
| 20260504223009 | 80 | 192 | 2.6 | 7.0 | 0.00 | 0.00 | 0.00 | 39 | 1009.6 |
| 20260504221514 | 81 | 267 | 0.9 | 7.8 | 0.00 | 0.00 | 0.00 | 35 | 1009.8 |
| 20260504220022 | 80 | 244 | 3.5 | 7.8 | 0.00 | 0.00 | 0.00 | 36 | 1010.1 |
| 20260504214526 | 80 | 142 | 2.6 | 7.8 | 0.00 | 0.00 | 0.00 | 36 | 1010.1 |
| 20260504213027 | 78 | 350 | 3.5 | 8.7 | 0.00 | 0.00 | 0.00 | 35 | 1010.1 |
| 20260504211513 | 80 | 267 | 2.6 | 7.8 | 0.00 | 0.00 | 0.00 | 33 | 1010.2 |
| 20260504210026 | 80 | 245 | 1.7 | 7.0 | 0.00 | 0.00 | 0.00 | 34 | 1010.3 |
| 20260504204524 | 80 | 207 | 3.5 | 7.0 | 0.00 | 0.00 | 0.00 | 32 | 1010.4 |
| 20260504203034 | 79 | 302 | 2.6 | 6.1 | 0.00 | 0.00 | 0.00 | 33 | 1010.4 |
| 20260504201514 | 79 | 219 | 2.6 | 7.8 | 0.00 | 0.00 | 0.00 | 35 | 1010.6 |
| 20260504200017 | 78 | 267 | 3.5 | 7.0 | 0.00 | 0.00 | 0.00 | 37 | 1010.6 |
| 20260504194521 | 79 | 227 | 3.5 | 6.1 | 0.00 | 0.00 | 0.00 | 37 | 1010.6 |
| 20260504193026 | 78 | 304 | 0.9 | 4.3 | 0.00 | 0.00 | 0.00 | 39 | 1010.4 |
| 20260504191527 | 77 | 223 | 2.6 | 6.1 | 0.00 | 0.00 | 0.00 | 37 | 1010.6 |
| 20260504190016 | 76 | 226 | 1.7 | 6.1 | 0.00 | 0.00 | 0.00 | 40 | 1010.6 |
| 20260504184521 | 77 | 248 | 1.7 | 5.2 | 0.00 | 0.00 | 0.00 | 42 | 1010.7 |
| 20260504183030 | 75 | 101 | 1.7 | 5.2 | 0.00 | 0.00 | 0.00 | 44 | 1010.8 |
| 20260504181510 | 74 | 168 | 1.7 | 5.2 | 0.00 | 0.00 | 0.00 | 46 | 1010.9 |
| 20260504180013 | 73 | 218 | 1.7 | 5.2 | 0.00 | 0.00 | 0.00 | 47 | 1010.9 |
| 20260504174520 | 71 | 226 | 3.5 | 5.2 | 0.00 | 0.00 | 0.00 | 47 | 1010.8 |
| 20260504173024 | 71 | 113 | 1.7 | 4.3 | 0.00 | 0.00 | 0.00 | 50 | 1010.9 |
| 20260504171527 | 70 | 213 | 2.6 | 3.5 | 0.00 | 0.00 | 0.00 | 52 | 1011.0 |
| 20260504081504 | 57 | 360 | 0.0 | 0.0 | 0.00 | 0.00 | 0.00 | 73 | 1009.3 |